User: anonymous   Login
Location: Chavannes
(47.1090°N, 0.2226°W)
Time: 22:53:20
(UTC+00:00)
Language:

Resurs 01 Rocket - Orbit

View from above orbital plane
View from above orbital plane
View from above satellite
View from above satellite

Ground track
Ground track

The orbit data is extracted from the following two-line orbital elements,

1 23343U 94074B   22028.15302093  .00000109  00000-0  22646-4 0  9990
2 23343  97.9158  83.9608 0007973  56.5078   1.3485 14.76940975465454
Epoch (UTC): 28 January 2022 03:40:21
Eccentricity: 0.0007973
inclination: 97.9158°
perigee height: 633 km
apogee height: 644 km
right ascension of ascending node: 83.9608°
argument of perigee: 56.5078°
revolutions per day: 14.76940975
mean anomaly at epoch: 1.3485°
orbit number at epoch: 46545

The dashed part of the orbit path shows where the satellite is in the earth's shadow,  

DLR